RH
41 42 41 40 39 38 37 34 32 30 28 27 26 26 24 22 19 17 17 16 13 12 12 11 9 7 5 4 4 4 3 3 4 4 7 13 13 12 15 16 16 16 16 16 14 12 10 15 23 27 29 36 45 51 59 70 74 77 88 92 89 90 82 84 94 88 87 95 100 96 93 99 96 93 91 87 83 77 75 73 77 76 62 59 61 65 72 76
41 40 39 39 38 38 37 36 34 31 29 27 26 25 24 22 20 17 16 16 14 12 12 12 10 8 6 5 5 4 3 3 3 5 11 13 12 13 15 15 16 16 16 15 13 11 10 12 20 27 33 39 43 46 52 61 69 77 84 84 88 89 76 77 86 85 86 90 96 96 95 99 94 87 87 90 87 78 77 76 79 77 65 62 64 68 73 71
39 38 38 37 37 37 36 36 35 33 30 27 25 25 24 22 21 18 16 17 15 13 12 12 12 9 7 6 5 4 3 3 3 7 12 11 11 13 15 17 16 16 16 14 12 12 10 11 20 27 33 40 44 48 51 58 68 72 74 81 88 83 76 76 78 80 81 84 95 96 94 98 91 83 85 91 88 82 82 77 78 79 66 63 66 71 74 70
36 36 37 37 37 37 36 35 35 34 31 28 25 24 23 22 21 18 16 17 15 13 12 12 12 10 8 6 5 5 4 4 5 7 10 10 10 12 16 17 16 15 15 13 12 13 10 11 23 28 36 46 47 49 52 57 65 67 70 79 78 72 77 78 74 77 77 81 92 92 93 96 88 83 82 81 83 85 82 71 72 77 66 62 68 73 76 73
33 34 35 36 37 36 35 35 34 34 32 28 25 23 22 21 21 19 17 16 15 13 12 12 12 11 9 7 6 5 5 8 8 9 11 10 9 10 13 13 13 13 12 12 11 13 10 12 25 34 42 50 51 52 53 53 56 63 65 65 65 67 77 78 73 75 77 82 88 90 93 90 82 80 78 73 75 77 70 63 67 73 68 62 66 72 77 75
31 32 33 35 35 35 35 34 33 33 31 28 25 23 22 21 20 19 16 15 14 12 12 12 12 12 10 8 7 5 7 11 12 13 13 11 9 9 11 10 11 11 10 11 10 11 9 12 25 37 46 49 53 55 50 51 52 58 61 59 63 65 71 76 74 76 78 81 86 88 85 81 80 77 75 71 66 64 60 59 64 70 71 65 63 67 73 74
29 30 32 34 33 34 33 33 32 32 30 27 25 23 21 21 20 19 16 14 12 12 12 12 13 13 11 9 7 6 7 10 12 14 13 11 11 10 10 9 9 10 10 10 10 10 10 18 26 33 40 36 42 48 43 48 51 55 62 63 65 63 66 70 70 75 77 78 81 82 79 79 80 75 78 73 62 64 63 59 63 70 72 67 65 64 66 69
28 29 31 32 32 33 32 30 30 31 30 27 24 22 20 20 20 19 15 13 11 11 12 12 13 13 12 11 8 8 8 7 9 11 11 13 14 12 10 8 7 8 9 10 10 10 13 23 26 26 29 20 24 38 39 47 51 52 60 62 63 66 68 68 67 72 74 76 79 82 80 78 77 75 78 70 63 69 65 60 66 71 71 67 64 65 65 66
28 30 31 32 32 32 31 29 28 30 29 26 23 20 20 19 19 19 14 11 11 11 12 12 13 13 13 11 10 11 6 5 10 11 13 16 16 14 12 10 7 6 7 9 9 10 13 19 22 20 22 18 18 30 40 49 51 49 55 59 62 67 70 69 68 71 73 76 80 83 82 79 76 77 77 68 66 73 69 67 71 71 70 65 62 63 65 65
29 30 31 31 31 32 30 26 26 29 28 26 22 20 19 19 19 17 12 11 11 11 12 13 13 13 14 12 11 10 5 9 15 15 16 17 16 15 14 11 8 6 6 8 9 11 12 16 20 18 18 18 15 24 37 43 46 47 53 58 61 67 70 69 69 72 75 76 79 83 85 80 75 79 78 68 68 75 75 74 71 69 68 64 61 61 62 63
31 31 31 30 30 31 28 24 25 27 27 25 22 20 20 19 18 15 11 11 12 12 13 13 14 14 13 13 12 8 9 17 18 17 18 18 17 15 13 10 6 6 5 7 9 10 13 16 21 19 17 16 14 26 37 38 45 48 53 61 63 64 67 68 70 74 75 76 77 78 80 77 74 81 77 64 69 77 77 75 71 68 65 63 63 61 61 61
32 31 30 30 29 29 26 22 24 26 25 23 21 21 20 17 14 12 11 12 13 13 13 13 14 14 13 14 12 6 13 21 17 14 18 18 17 15 14 11 7 7 5 7 8 9 14 19 20 19 17 14 15 29 40 42 48 50 56 69 70 66 70 69 69 74 74 74 75 70 73 79 80 81 71 61 70 78 75 72 72 67 63 62 63 63 63 62
31 31 30 30 29 28 24 20 23 25 23 23 22 20 17 15 13 11 11 14 14 13 14 14 14 15 14 13 7 3 13 21 16 12 15 18 16 13 14 14 12 8 5 6 7 12 18 20 20 18 16 14 16 30 41 45 50 53 57 71 78 77 80 72 65 73 73 72 71 65 73 86 83 72 64 64 70 76 75 71 71 69 64 62 60 62 63 64
31 31 30 30 28 26 21 18 23 24 23 25 22 18 17 20 21 18 15 14 15 14 14 15 14 15 14 11 5 4 11 18 16 11 13 17 13 12 13 15 16 12 10 9 11 17 19 19 18 16 14 12 19 36 47 46 52 59 59 69 80 81 83 71 63 75 76 73 70 65 78 87 77 64 58 65 69 72 75 71 71 70 67 66 63 62 61 62
32 31 31 30 27 23 18 17 22 23 24 26 22 20 21 22 25 24 19 16 16 15 13 15 15 16 18 13 5 5 10 16 16 11 12 14 10 11 14 15 17 16 16 15 15 17 17 17 16 14 13 10 23 44 51 48 51 59 64 72 74 73 79 68 62 75 76 77 71 67 86 87 71 60 53 61 69 71 73 71 70 70 69 68 66 66 64 63
32 31 30 28 24 21 16 16 22 23 24 25 23 24 22 22 27 27 22 18 20 19 15 15 15 19 25 18 8 7 9 12 14 11 11 11 8 10 14 15 16 16 16 16 17 16 16 17 14 13 12 13 30 49 54 54 53 54 59 67 66 65 74 69 63 69 69 78 77 69 84 80 61 56 54 60 68 71 74 72 70 70 69 69 68 69 67 65
27 26 26 25 22 19 14 16 22 22 25 24 23 25 21 24 31 26 22 22 23 23 21 20 19 20 22 15 10 11 10 10 10 10 10 9 9 9 11 13 13 13 14 14 15 15 15 16 14 14 16 18 29 45 58 62 57 51 49 55 59 58 67 71 65 65 65 75 81 76 80 77 64 59 59 62 66 71 76 74 72 72 70 70 71 70 69 68
18 19 20 19 18 17 13 16 23 22 25 24 22 24 20 24 32 26 24 25 23 25 28 28 24 20 15 10 12 15 13 12 10 10 10 9 10 9 10 12 12 13 13 13 13 13 14 14 15 17 20 21 21 34 52 56 50 47 49 53 55 53 61 66 59 60 65 69 79 83 84 82 73 64 61 64 66 69 73 73 73 74 72 72 73 73 72 70
12 13 14 14 15 15 13 16 23 24 25 23 21 23 20 20 28 28 26 25 23 25 27 27 22 17 12 10 13 15 15 14 11 10 9 9 10 10 11 10 12 13 12 15 14 13 13 14 17 18 21 22 20 24 30 34 36 37 43 49 50 51 58 59 51 53 63 68 77 85 85 80 73 68 66 65 67 68 69 68 68 70 71 72 73 74 73 71
12 11 11 11 13 14 13 17 24 25 24 22 20 22 22 23 29 30 25 21 21 22 20 20 19 16 14 13 14 16 16 14 13 11 9 10 11 10 10 10 11 13 15 19 17 13 14 17 20 19 21 22 21 21 19 22 28 29 35 42 45 49 54 51 44 48 58 65 71 76 78 74 69 71 69 64 65 66 66 66 66 65 67 69 70 73 73 70
12 12 11 10 12 13 13 18 24 27 26 23 20 21 27 32 34 33 28 22 18 18 17 16 16 16 14 14 16 16 16 14 13 12 10 11 11 10 10 12 14 17 20 19 17 15 15 19 21 18 20 21 21 21 20 21 22 24 33 39 43 49 50 43 42 50 53 55 62 65 67 69 70 71 69 65 64 66 66 65 66 64 64 66 67 71 71 71
14 13 12 9 11 13 13 19 26 29 27 24 21 23 29 33 32 30 30 27 20 16 17 15 14 15 13 13 15 16 18 18 13 11 12 11 10 10 10 14 17 20 21 18 18 21 19 20 19 17 19 20 20 21 21 20 22 29 36 40 46 49 46 39 43 53 47 46 58 61 59 63 74 77 73 70 64 61 62 61 64 64 65 65 65 67 67 67
19 14 13 10 11 12 14 20 27 30 27 24 24 24 27 30 28 25 26 28 24 17 16 16 14 12 12 14 15 16 18 20 16 11 10 9 9 10 11 15 18 19 19 18 22 24 21 20 17 16 17 15 17 19 20 19 23 37 43 43 46 44 42 39 43 50 44 43 54 63 66 65 75 79 73 71 66 63 63 62 65 65 65 66 65 67 64 63
25 18 14 12 10 11 14 20 27 30 26 23 25 25 26 27 26 24 22 26 28 22 16 17 15 12 13 14 15 17 18 18 17 12 9 9 10 11 12 14 16 17 18 20 23 22 20 18 15 14 14 13 14 15 19 17 21 35 40 41 42 38 41 43 44 47 44 46 50 63 74 69 76 79 73 76 71 68 71 68 67 68 68 67 65 68 67 65
29 23 17 12 10 11 14 21 28 28 24 24 26 26 26 25 23 23 23 30 36 30 19 16 16 12 12 15 15 16 16 15 14 11 10 10 11 12 12 11 13 15 18 20 20 19 18 15 12 13 12 13 13 14 18 17 19 30 32 35 36 34 41 45 45 45 47 50 47 52 59 61 79 83 79 87 78 68 75 71 67 71 70 63 62 68 68 65
29 28 21 14 11 11 13 21 26 24 25 27 26 26 25 23 23 21 26 41 45 31 20 16 15 14 12 15 14 14 17 16 12 11 11 11 11 11 11 12 11 13 17 17 16 17 17 14 11 12 12 13 14 14 16 17 20 27 29 31 32 35 43 45 43 47 55 55 46 46 48 55 75 77 77 90 82 77 85 76 65 66 65 61 61 67 66 65
28 29 25 16 12 12 13 18 23 24 27 27 25 26 23 20 22 20 28 48 46 25 18 16 13 14 13 13 14 16 19 16 11 12 11 11 12 10 11 14 11 10 13 13 15 16 14 13 12 12 13 13 13 13 14 18 22 25 25 29 33 36 42 43 41 46 54 51 48 53 52 58 70 68 75 86 78 80 91 86 72 63 62 63 64 67 67 69
26 28 26 19 13 13 13 16 22 25 25 26 25 24 21 21 23 24 33 43 34 17 14 14 12 13 13 13 15 15 14 12 11 12 11 10 11 10 12 14 12 12 12 12 16 16 12 11 10 11 12 12 13 13 14 17 19 20 23 29 33 34 39 42 39 45 51 46 53 62 52 57 74 75 82 85 75 79 87 89 84 68 62 65 65 69 72 74
23 26 26 18 12 13 13 16 23 25 25 27 25 21 19 20 22 29 41 39 23 15 14 12 12 12 12 13 14 14 12 9 10 11 11 11 10 10 11 12 13 13 11 12 15 14 11 9 9 10 10 10 12 13 15 16 15 17 24 30 31 33 38 40 39 46 53 50 57 62 49 51 69 81 89 84 77 85 86 86 85 71 64 65 65 72 76 77
21 25 25 17 12 12 13 17 22 24 25 25 23 22 20 26 35 43 46 35 20 15 13 11 12 12 12 14 14 14 13 11 10 10 11 11 10 9 10 10 10 13 16 17 14 13 11 8 10 11 9 10 11 11 15 17 14 18 27 30 30 33 36 45 54 49 47 57 59 54 49 47 55 72 87 84 78 83 81 78 79 71 65 64 65 71 75 77
20 23 23 16 11 12 14 17 20 23 24 23 23 24 22 32 50 53 39 25 20 17 12 12 13 12 13 15 15 14 13 12 11 10 11 12 11 10 11 11 11 15 24 23 14 13 13 8 12 12 8 9 10 11 15 16 15 20 28 30 31 41 43 49 61 48 45 64 59 45 46 45 46 53 64 73 75 76 76 74 75 72 68 66 66 69 73 76
19 21 19 14 11 12 14 16 20 22 23 23 19 21 32 40 44 45 35 24 22 19 14 13 13 14 14 14 15 15 14 13 12 13 15 15 14 13 14 17 17 15 23 25 15 13 13 9 11 9 7 10 10 11 16 17 17 20 28 34 37 49 53 51 54 51 54 58 46 41 42 41 51 52 47 58 64 67 71 66 62 63 66 69 69 71 74 77
19 18 15 14 14 16 16 17 20 21 23 23 18 27 51 54 41 40 39 30 24 18 14 13 14 16 15 14 15 15 13 13 13 14 15 15 16 15 14 18 17 13 18 22 16 13 13 10 11 8 7 11 9 11 17 17 17 18 24 34 40 48 54 54 52 51 53 47 38 43 40 39 55 54 47 54 54 55 61 55 50 53 60 68 70 71 73 75
18 19 19 22 24 23 22 21 20 22 22 22 25 34 44 46 42 43 41 35 29 19 13 14 15 15 15 15 17 15 12 13 14 15 15 15 16 16 15 14 14 15 18 18 16 16 15 14 15 10 8 11 10 11 18 19 18 18 20 28 37 41 45 50 49 44 47 48 45 40 34 44 53 46 51 60 55 55 58 54 54 57 62 67 69 72 72 73
17 23 28 30 29 24 22 22 21 23 20 21 38 44 37 38 43 43 41 36 29 22 20 17 15 16 16 17 18 14 11 12 14 16 16 15 17 19 18 13 13 17 16 15 18 17 15 16 17 11 8 11 12 12 17 18 18 17 16 20 25 30 38 47 45 44 48 48 47 41 38 54 57 48 59 68 66 68 64 61 64 64 67 69 69 73 73 73
18 27 32 28 26 24 23 24 24 24 23 30 42 41 38 39 36 36 38 31 24 25 24 17 14 16 17 19 20 15 10 11 14 16 16 16 17 18 16 13 13 14 12 16 20 16 12 14 13 10 8 9 10 12 14 14 16 18 15 15 17 22 35 44 42 49 52 44 47 49 47 60 65 54 59 70 73 75 73 70 69 66 68 67 68 73 74 72
19 29 33 27 26 29 27 27 30 27 27 32 34 35 43 39 27 34 38 26 23 25 20 16 15 16 17 18 20 17 12 12 13 15 17 17 16 16 15 13 11 11 11 13 15 14 13 13 13 10 7 7 8 12 13 11 15 18 15 14 18 19 28 39 44 51 52 45 51 55 50 63 70 56 58 73 76 75 77 77 73 71 70 66 67 72 71 69
18 30 36 29 29 33 32 32 33 32 34 42 49 51 51 38 25 30 30 21 24 25 20 19 15 14 18 18 18 17 13 13 14 17 18 16 16 15 12 11 10 9 10 8 9 13 12 12 15 13 8 9 10 10 11 11 12 15 14 13 16 18 22 31 39 44 47 49 56 56 53 62 67 58 60 73 75 74 78 79 77 76 71 63 65 69 68 69
17 31 40 35 34 35 37 37 34 36 42 52 63 55 40 35 31 27 24 24 27 26 27 23 12 12 18 17 17 16 13 13 16 18 18 15 15 14 11 11 10 9 9 8 9 14 13 11 15 15 11 10 12 12 12 13 12 12 13 13 15 23 27 29 35 41 47 56 58 50 48 56 60 57 60 67 71 72 75 80 79 73 65 59 62 66 66 68
19 35 44 40 38 38 40 39 37 44 49 51 57 51 36 35 33 25 25 28 26 25 27 22 13 13 15 14 17 15 12 15 16 16 16 14 14 14 11 10 9 10 9 7 9 13 12 10 14 17 13 10 12 13 12 13 13 12 14 14 13 17 21 23 28 34 46 62 64 49 46 58 60 53 53 59 66 69 71 74 75 69 59 56 60 63 64 65
23 40 46 40 41 42 41 41 41 48 54 51 51 48 39 35 33 30 27 27 26 24 22 20 17 16 15 16 18 14 12 15 15 15 15 13 13 13 10 9 9 9 8 8 10 10 10 13 17 17 12 10 12 13 13 13 14 15 16 16 13 13 19 24 23 27 43 58 61 53 48 53 53 46 47 55 61 64 66 66 68 65 56 54 58 60 61 62
26 41 45 40 42 42 40 46 52 52 52 48 42 38 36 37 38 34 25 23 26 25 21 20 18 17 19 20 21 18 14 13 14 15 14 12 13 12 9 8 7 7 9 10 9 10 14 16 14 15 14 11 10 13 15 14 14 15 14 14 15 13 19 27 22 23 39 46 49 53 49 44 48 49 48 52 57 60 61 61 62 59 52 52 56 56 58 61
33 37 40 40 42 40 40 49 59 59 51 43 39 35 34 35 35 31 25 23 25 23 21 21 19 18 20 23 25 22 15 12 14 14 13 13 12 9 9 8 6 8 9 8 9 12 15 14 11 22 33 28 19 17 17 16 14 13 11 12 14 12 15 23 25 33 45 44 41 47 46 45 54 57 50 49 56 59 58 60 59 54 51 51 52 53 55 57
46 41 39 43 43 39 39 44 51 58 56 48 44 41 34 31 29 27 26 25 26 25 25 25 23 21 21 24 27 24 17 15 16 13 11 11 9 7 8 7 6 8 6 7 13 11 12 21 21 21 29 30 25 21 21 21 14 11 15 17 18 22 22 21 30 43 48 44 42 43 44 49 55 56 55 54 58 61 60 61 58 51 49 49 50 53 53 55
60 53 42 42 41 38 40 45 49 58 62 59 55 47 39 35 30 28 28 27 26 27 27 26 24 24 25 26 27 27 24 21 19 17 16 14 12 9 7 6 7 8 6 7 12 8 11 26 27 19 22 28 28 25 30 33 21 16 26 24 19 26 27 22 33 45 44 43 48 47 47 57 60 57 59 59 60 65 66 63 60 53 48 49 50 52 53 58
74 73 65 53 41 39 48 54 59 65 66 67 63 49 43 45 38 31 30 27 27 28 28 28 26 26 27 28 30 31 29 26 24 25 26 24 23 16 8 8 7 5 9 9 8 15 23 26 29 35 35 35 38 38 41 40 26 20 27 22 18 27 28 26 32 39 43 45 47 49 52 60 65 62 61 63 63 68 71 67 63 56 50 51 53 52 56 63
81 90 95 83 61 54 60 62 70 77 70 65 62 51 49 53 45 37 33 28 28 29 28 30 31 29 27 29 32 30 30 33 30 27 28 30 31 23 11 9 7 7 18 18 9 17 24 18 25 40 36 28 33 33 35 39 30 26 29 22 22 29 27 27 28 29 38 37 34 50 61 59 62 64 63 65 65 69 72 66 59 54 51 52 54 54 58 62
82 89 94 92 85 79 75 70 79 87 73 62 65 61 56 56 51 46 42 35 30 28 28 31 33 33 33 31 30 29 33 37 33 31 31 30 33 27 12 8 12 17 25 21 12 19 23 15 21 34 34 31 33 31 35 41 38 40 43 30 24 28 26 29 35 34 37 31 29 51 64 55 55 60 61 63 65 67 66 57 51 52 52 54 54 54 56 56
79 85 82 85 92 91 84 79 82 85 73 66 71 68 60 59 55 50 47 42 38 35 31 31 32 34 37 37 34 32 34 33 29 33 35 30 30 27 13 8 12 15 17 12 13 22 25 23 28 34 33 33 36 37 38 41 42 49 55 47 41 43 43 47 53 52 50 44 43 56 62 55 56 63 66 65 61 61 60 55 54 55 54 55 55 53 52 54
81 91 89 89 93 91 88 84 81 80 74 70 72 66 60 60 57 53 50 45 44 43 35 32 34 35 40 46 41 30 30 31 28 30 33 31 30 27 20 14 11 11 12 11 14 18 19 28 39 44 41 36 35 39 39 40 43 45 47 49 51 51 49 52 56 56 56 54 54 59 59 57 64 73 73 65 58 61 64 60 57 54 53 54 53 51 53 55
81 95 97 98 97 93 92 87 81 83 81 76 74 69 65 63 58 57 55 43 39 41 36 35 38 38 42 48 41 27 27 32 30 26 27 27 25 22 20 16 13 13 14 13 15 18 21 29 37 42 45 38 32 35 37 34 35 39 40 42 50 53 50 50 53 56 59 58 58 60 55 58 74 82 77 69 64 66 68 61 55 53 54 55 53 52 53 51
79 92 98 100 98 95 96 92 86 83 79 74 71 69 67 64 57 56 55 45 36 34 34 37 37 36 39 38 32 28 29 30 28 24 22 22 22 21 21 18 15 15 16 17 18 21 26 30 32 38 43 39 33 35 37 33 33 40 42 38 45 55 53 51 54 59 61 55 50 50 50 64 84 83 77 79 75 71 67 58 52 54 55 54 53 52 49 45
Wind_Speed
17 18 18 18 18 17 17 16 16 15 14 13 12 12 12 11 10 9 9 9 8 8 7 7 6 6 7 7 8 8 10 13 14 15 14 7 5 7 7 7 7 7 7 6 5 4 4 4 6 7 7 8 6 4 6 8 5 1 2 1 2 2 1 2 4 3 4 4 6 11 13 7 1 4 4 7 6 7 8 9 10 8 13 13 15 21 21 19
17 18 18 19 19 18 18 17 17 16 15 14 13 12 13 12 11 10 9 9 9 8 8 7 7 7 7 7 7 8 10 12 15 17 13 5 5 8 7 8 8 8 8 6 5 4 3 3 5 8 8 6 4 3 3 6 7 4 2 1 3 3 1 1 5 6 4 5 8 11 12 6 1 5 5 4 4 6 7 7 9 11 13 13 19 23 20 20
18 19 19 19 19 19 19 18 18 17 16 15 14 13 13 12 11 10 9 9 9 8 8 8 7 7 6 6 7 7 9 12 15 17 12 7 7 8 8 8 8 8 7 5 4 3 2 2 3 8 8 5 3 4 4 4 6 5 2 1 4 4 0 1 7 6 4 10 10 7 8 5 3 5 5 4 4 3 3 6 7 12 16 18 23 24 23 21
19 19 20 20 20 20 20 19 19 18 17 16 15 14 13 13 12 10 9 9 9 8 8 8 8 7 6 6 6 6 7 10 12 13 9 8 9 8 8 7 7 8 8 7 5 4 2 1 2 7 7 4 4 5 5 7 6 4 5 2 4 3 3 3 8 7 9 15 10 6 6 4 4 3 5 9 5 1 5 9 10 14 20 22 25 26 25 23
19 20 20 21 21 21 21 20 20 19 18 17 16 15 14 13 12 9 9 9 9 8 7 8 8 7 7 6 5 5 4 4 5 8 6 7 8 8 8 7 7 8 8 8 6 4 3 1 4 7 6 3 4 4 6 12 9 4 4 6 3 1 2 5 9 9 12 13 9 8 5 5 6 3 8 11 6 3 8 13 12 14 19 21 25 26 26 24
20 21 21 21 21 21 21 21 21 20 19 17 16 15 15 13 12 9 8 8 9 8 7 8 7 7 7 6 6 5 2 1 2 4 5 6 7 8 8 8 7 8 9 9 7 5 4 3 6 7 6 3 5 5 5 13 12 2 3 3 2 2 4 8 10 11 13 12 9 7 5 8 6 3 9 12 8 4 5 11 12 12 15 18 22 26 27 26
21 21 21 21 21 22 22 22 22 21 20 18 17 16 15 14 12 9 7 8 8 7 7 8 7 7 6 7 7 6 9 6 1 4 8 8 8 7 8 7 7 8 9 9 8 5 4 6 7 7 5 2 6 8 5 12 13 3 2 1 3 4 7 9 9 12 12 11 8 6 6 6 4 1 5 10 9 4 4 8 12 12 13 16 21 25 26 25
21 22 22 22 22 23 23 23 23 23 21 19 17 16 15 14 11 8 7 7 8 7 7 7 7 8 6 7 7 7 12 8 1 4 8 8 7 6 6 6 7 8 8 8 7 5 5 6 6 5 3 1 3 5 7 10 7 5 1 2 4 5 9 9 9 11 10 8 6 6 4 3 5 1 3 9 8 5 4 8 12 13 13 14 20 24 26 26
22 22 22 22 23 24 24 24 24 23 22 20 18 15 14 13 10 7 7 6 7 7 7 7 7 8 7 7 6 7 10 8 3 5 6 5 5 5 4 4 6 8 8 8 6 5 5 3 3 3 4 5 3 3 13 9 3 7 4 5 5 5 8 9 9 10 8 6 5 6 1 2 4 1 3 9 7 4 7 9 12 14 13 14 18 23 26 26
22 22 22 23 23 24 24 24 24 24 22 21 18 15 13 12 8 6 6 5 6 6 6 6 7 7 7 8 4 3 7 9 5 6 5 4 3 2 3 4 5 6 7 7 7 6 4 2 4 8 6 5 5 2 11 4 3 10 9 8 7 6 6 7 9 10 7 4 6 5 1 2 2 1 3 6 5 6 10 10 14 16 14 15 17 20 23 24
22 22 22 23 24 24 24 24 24 23 21 19 18 15 12 9 6 5 5 4 5 5 5 6 6 7 8 8 6 5 9 10 8 7 6 4 2 1 3 4 4 5 6 6 6 5 3 3 8 8 4 5 5 2 4 3 9 15 13 9 7 6 4 3 6 8 6 3 7 6 1 2 1 1 3 3 5 8 10 13 15 16 16 16 16 17 20 21
22 22 23 23 24 25 25 25 24 22 19 17 16 13 9 6 5 4 4 3 4 4 5 5 6 8 8 10 12 9 10 12 11 10 9 7 4 1 2 3 3 4 5 6 5 4 3 4 8 7 5 7 4 2 3 8 14 15 11 5 4 5 3 3 4 5 6 2 7 6 2 3 1 4 4 2 8 9 12 15 14 16 16 17 17 16 18 18
22 22 23 23 24 25 25 25 24 21 17 15 14 11 7 5 5 3 2 2 3 3 4 4 6 8 7 10 12 9 10 13 14 13 11 9 6 4 3 2 2 3 5 5 4 3 3 4 7 8 7 7 2 5 6 10 13 10 6 4 2 5 4 6 4 4 5 1 7 7 2 4 5 10 7 4 11 11 12 15 13 14 15 17 18 17 17 16
22 23 23 24 24 25 25 24 24 20 15 14 14 8 6 6 6 4 3 2 2 3 3 4 6 7 8 10 8 9 13 14 15 14 11 9 7 5 4 2 1 2 4 5 4 5 4 5 8 8 6 4 4 10 7 7 7 5 3 3 2 2 4 4 6 7 4 2 7 7 2 5 6 10 10 7 12 12 13 14 13 14 15 16 17 17 17 16
23 23 24 24 24 25 25 24 22 18 14 14 12 7 6 7 5 4 3 1 2 3 3 4 6 6 9 11 8 10 14 15 15 12 9 9 6 4 4 3 1 2 3 4 4 4 4 5 7 5 3 1 7 9 4 4 3 3 2 2 2 1 3 3 5 10 5 1 7 7 1 5 6 6 8 10 14 14 13 13 14 15 16 17 16 17 17 17
23 24 24 24 24 25 24 23 21 16 13 14 10 6 7 8 5 0 2 3 2 3 3 4 6 5 6 8 7 9 13 15 14 10 9 8 5 3 4 3 2 2 4 4 3 4 5 6 5 2 1 1 6 6 4 4 3 2 2 2 2 2 2 3 3 10 8 4 4 4 1 3 4 5 3 12 16 16 15 14 15 16 17 18 18 18 18 18
23 24 24 25 24 25 24 22 20 14 13 13 9 5 7 8 2 5 4 3 4 4 5 6 6 7 7 6 5 5 10 14 13 12 11 9 6 4 4 4 2 2 5 4 4 5 5 5 2 1 2 3 4 5 5 2 4 3 1 2 3 3 1 1 2 6 9 5 2 3 2 5 5 7 1 12 17 17 15 15 16 17 18 18 18 19 20 19
23 24 24 24 24 24 23 21 19 13 13 12 7 6 6 5 2 6 3 4 7 6 6 7 5 4 6 7 5 3 6 10 14 16 14 11 10 7 6 6 4 5 5 2 2 3 4 3 2 1 3 3 2 4 4 3 4 4 4 3 3 3 3 3 3 5 10 4 3 5 3 9 9 6 2 11 17 17 15 15 16 17 18 19 19 21 21 21
23 24 24 24 23 23 22 20 17 12 11 10 7 5 5 4 1 5 2 9 11 6 4 5 5 3 4 5 5 3 3 8 13 17 16 13 11 10 8 7 7 7 5 2 2 3 4 2 2 2 0 1 4 5 5 6 7 7 7 5 4 4 3 4 3 6 11 5 3 7 5 7 7 5 2 9 14 15 13 13 15 16 18 19 19 20 21 22
23 24 24 23 22 22 21 18 15 11 9 8 6 4 4 7 3 2 7 15 12 7 6 7 9 11 10 7 5 4 4 7 12 16 17 14 12 10 8 7 6 4 2 1 1 1 3 1 1 4 4 5 7 8 8 6 5 6 5 5 5 5 4 4 2 5 10 6 3 6 5 6 5 5 2 7 10 11 11 12 14 16 17 18 18 19 21 22
24 24 24 23 21 20 19 17 13 8 7 8 6 3 6 8 4 4 13 13 8 7 9 9 10 15 16 10 7 6 6 6 10 13 16 14 11 7 5 4 0 1 3 1 1 3 2 1 3 4 6 7 8 8 8 6 4 5 4 4 5 4 5 4 3 5 8 4 2 3 4 5 5 4 1 6 7 7 10 11 12 15 15 16 17 18 20 20
25 24 24 22 20 19 18 16 10 5 5 5 5 7 9 7 4 5 9 9 13 16 12 11 11 15 15 11 9 8 7 5 6 10 13 13 12 8 4 3 4 1 3 2 1 4 3 4 4 6 7 5 5 7 7 6 3 4 3 3 3 3 2 2 3 6 6 3 2 2 3 3 5 4 0 4 4 2 6 10 11 11 11 13 15 15 17 18
25 24 24 22 20 19 17 14 7 3 4 2 3 6 6 4 4 6 6 7 15 17 11 11 12 14 12 10 8 7 6 4 3 7 11 13 13 10 6 4 4 2 2 2 3 0 2 4 4 6 7 4 3 4 3 3 1 3 4 4 2 3 3 1 2 5 4 2 2 4 3 3 5 3 2 2 2 2 1 6 8 6 5 7 8 9 10 12
25 25 24 23 20 18 16 13 5 3 6 4 2 2 3 5 5 8 8 5 8 10 7 6 8 11 10 7 4 5 5 4 4 6 11 13 11 8 5 4 4 1 1 2 6 3 6 5 2 1 3 4 2 4 0 3 4 1 5 5 3 4 5 4 3 4 3 3 2 5 4 4 4 3 3 2 2 3 2 2 5 3 2 3 3 3 4 5
24 25 24 23 21 18 15 10 4 5 7 4 4 3 4 8 9 8 6 3 4 6 3 2 4 7 8 6 5 4 1 4 6 6 9 14 12 6 2 3 3 2 3 4 3 3 8 6 4 4 4 2 1 4 3 4 3 4 4 6 6 7 6 6 7 5 4 3 1 4 4 4 4 3 4 3 2 1 1 1 1 3 4 5 5 3 0 2
24 24 24 23 21 19 14 8 7 10 7 3 4 4 6 9 9 7 3 3 2 4 1 1 2 6 9 6 6 5 2 3 8 8 9 13 12 6 2 2 1 1 5 4 1 2 5 3 1 1 1 1 3 4 5 5 2 4 4 7 8 8 7 9 9 5 3 2 2 3 4 2 5 4 4 4 3 2 3 2 4 5 5 5 5 3 2 1
23 24 24 23 21 20 15 10 11 11 6 2 3 4 8 8 6 4 1 4 2 3 1 3 2 7 9 5 6 8 1 2 6 8 11 12 12 8 4 2 1 1 3 3 1 3 2 3 3 2 1 1 2 4 5 6 6 2 6 8 12 10 9 9 9 4 2 2 3 3 5 2 3 4 5 3 3 4 5 5 5 5 4 3 2 3 3 3
22 23 23 22 20 19 17 14 12 10 5 3 4 6 7 6 4 1 2 3 1 1 1 3 3 7 9 4 9 10 1 0 2 6 12 13 12 8 4 4 4 4 2 5 4 5 0 1 2 1 3 2 3 5 5 7 5 3 4 6 9 7 7 7 7 4 1 2 3 4 3 2 3 4 4 3 2 3 5 5 5 3 3 2 3 4 4 4
21 22 23 21 19 17 16 14 10 8 6 5 5 6 5 3 2 1 3 1 2 1 1 4 3 6 6 3 9 10 3 1 2 5 12 12 12 6 2 6 7 4 1 4 4 6 3 3 2 1 1 2 7 6 5 7 3 0 3 8 8 7 7 5 5 4 3 3 3 5 2 2 4 5 3 2 0 3 4 5 5 2 1 3 5 6 6 4
20 21 22 22 19 16 14 11 8 8 7 7 6 5 3 1 1 3 1 1 1 1 1 4 3 5 6 3 2 6 3 3 2 5 8 7 11 6 1 4 4 3 2 3 1 6 7 7 4 2 5 6 6 3 3 7 7 7 7 10 10 7 6 5 3 3 3 2 5 6 4 5 1 4 2 2 2 4 4 3 4 3 4 6 6 6 4 3
19 19 21 21 18 15 14 10 8 8 7 6 5 3 0 1 3 5 1 1 1 2 1 3 2 3 6 4 1 2 1 3 2 5 4 2 6 3 2 2 1 2 3 5 3 5 7 6 4 4 7 6 1 2 2 4 6 6 5 7 7 5 5 4 4 3 1 4 5 5 2 6 2 3 3 4 5 3 5 4 5 6 6 6 5 4 2 2
18 19 18 18 16 15 13 10 9 7 6 5 5 2 2 1 1 2 2 3 1 2 1 2 1 3 4 3 1 3 2 2 1 4 4 2 4 3 1 3 3 2 3 3 2 5 5 4 3 3 5 6 4 2 3 5 5 5 5 6 6 3 3 2 3 1 3 5 2 2 1 3 2 4 3 5 6 5 5 7 8 9 8 6 5 3 2 2
18 18 15 13 14 12 10 8 7 5 4 3 3 2 3 4 1 1 2 2 0 2 2 2 2 3 5 3 1 3 1 2 2 1 2 3 3 4 4 2 5 4 0 3 1 3 3 5 3 2 4 5 6 3 1 1 2 4 6 5 5 3 2 0 3 2 3 4 2 3 2 1 2 2 3 6 7 6 6 7 9 10 9 7 4 3 3 3
17 16 14 11 9 8 5 3 3 2 2 2 2 2 3 3 1 1 1 3 2 2 1 1 2 3 5 2 3 3 2 2 2 3 2 2 3 2 4 3 3 5 3 3 2 2 2 4 4 3 2 2 5 5 5 5 4 3 3 6 6 5 4 3 4 3 3 3 1 2 1 2 2 2 5 5 3 5 6 6 8 8 7 6 5 5 6 6
14 12 10 7 6 6 5 3 1 1 1 1 3 4 2 1 2 1 2 3 2 2 3 2 4 4 1 2 4 2 3 2 2 4 2 2 4 3 3 4 4 4 4 3 3 1 3 5 7 4 1 3 3 4 5 6 3 1 2 5 4 4 5 4 3 4 4 1 1 2 1 1 3 2 6 2 5 6 7 8 8 8 7 7 7 7 8 8
11 7 5 6 8 8 7 6 4 3 1 1 4 3 2 3 2 2 2 2 2 3 4 4 4 4 1 3 4 3 1 1 1 2 0 2 3 4 3 4 6 6 5 4 3 1 1 4 6 4 2 3 4 5 5 4 3 1 2 4 3 3 6 5 1 1 3 3 1 1 1 3 2 2 5 3 5 3 4 8 8 9 8 8 8 9 10 10
8 6 6 8 9 8 7 6 6 5 3 2 4 0 3 3 3 4 2 3 4 3 2 1 1 2 1 1 3 3 1 1 0 1 1 1 2 5 4 4 6 9 9 6 3 2 3 3 6 1 0 3 3 3 2 2 4 4 2 4 3 3 5 5 2 3 4 2 3 1 2 2 1 1 4 2 4 2 2 5 6 8 9 9 10 11 11 12
9 6 6 6 7 7 6 5 6 5 4 3 2 2 2 3 4 5 4 4 3 2 2 2 2 2 4 3 3 3 1 1 1 0 2 1 3 5 5 3 6 11 14 10 3 1 4 1 7 2 2 4 4 2 2 5 4 5 6 4 2 3 1 1 3 1 1 1 3 3 1 2 2 4 4 4 6 7 5 4 5 7 11 12 12 13 13 14
9 4 6 6 5 5 5 4 7 7 4 4 1 2 1 4 6 8 11 7 1 0 1 3 2 1 3 5 4 3 3 4 3 2 3 2 3 4 5 4 4 8 14 12 5 2 3 2 5 5 4 2 4 2 2 2 5 5 5 2 2 3 4 2 2 3 3 3 2 2 2 2 4 5 7 9 9 9 7 5 6 10 15 16 15 14 15 16
7 3 5 6 4 2 1 5 7 6 3 2 2 3 1 3 8 13 15 8 4 2 2 3 2 1 3 4 3 3 3 4 5 4 2 3 4 4 4 5 3 3 8 7 4 2 2 2 3 6 3 1 2 1 5 5 3 3 3 1 1 2 2 2 2 2 4 4 2 1 1 4 5 4 8 12 11 9 10 8 8 13 18 17 16 16 17 17
6 3 3 5 3 2 2 5 4 3 2 0 2 2 2 3 7 13 15 8 8 6 4 4 3 2 3 3 2 3 3 3 5 4 3 4 4 3 5 8 7 6 4 3 2 2 2 2 2 4 5 2 5 6 6 6 6 6 4 4 4 4 4 3 1 2 2 4 3 4 2 5 4 2 5 9 9 10 12 12 11 15 19 18 17 18 18 17
6 2 1 5 3 1 2 3 2 1 1 1 4 5 7 6 6 9 10 4 7 7 4 3 2 2 3 3 2 3 3 3 4 3 3 4 5 5 5 8 13 14 9 3 3 4 3 3 2 4 4 5 9 7 5 5 5 6 4 3 4 4 5 5 3 3 2 3 2 4 2 4 5 3 5 10 13 14 16 16 15 18 19 18 18 18 18 17
7 2 3 3 2 1 2 3 3 2 1 4 8 8 8 5 4 6 7 2 2 3 1 1 2 1 2 2 1 2 3 2 4 4 3 3 6 9 10 11 16 13 7 3 3 3 3 2 1 4 5 5 8 5 1 1 4 5 2 2 4 3 3 5 5 4 4 3 2 3 1 4 5 4 6 14 15 14 15 15 16 19 20 20 19 18 16 15
10 3 3 3 0 3 1 1 1 3 4 6 6 6 6 4 4 5 6 4 4 1 0 1 0 0 2 1 2 2 3 2 2 4 3 3 4 8 14 19 18 10 6 5 6 6 4 1 3 1 5 6 6 6 4 4 2 3 1 1 3 4 6 5 2 4 3 4 4 4 2 5 5 4 3 9 9 9 10 12 15 18 20 21 20 17 15 14
10 2 1 4 3 5 3 3 1 1 3 5 5 5 8 5 4 8 7 5 5 2 0 2 1 2 3 1 3 1 1 2 1 2 1 2 3 5 9 21 22 13 9 9 11 13 6 1 4 4 1 0 1 2 3 2 1 1 1 2 3 4 6 5 3 4 2 4 4 5 4 4 4 3 2 4 5 7 7 9 13 18 20 21 19 16 15 15
7 2 3 5 5 7 8 7 6 3 1 4 4 3 6 5 8 13 8 2 7 8 3 2 3 3 3 3 4 4 3 2 1 1 2 2 4 4 4 16 22 14 7 9 16 13 4 1 4 6 6 6 5 6 4 1 2 2 3 4 4 3 4 6 5 2 4 5 1 4 6 4 1 1 3 4 5 6 6 9 15 19 20 20 18 16 15 14
5 2 2 3 4 5 6 8 12 7 2 2 1 2 6 5 6 10 7 3 10 11 3 1 4 3 2 3 3 3 4 4 3 1 2 3 4 5 4 7 14 10 4 9 15 10 4 2 2 4 4 5 6 8 4 2 2 4 4 5 6 5 3 5 5 5 7 8 2 6 6 7 6 7 8 8 6 6 8 13 18 20 20 19 17 15 14 13
4 2 3 4 3 0 2 7 11 8 4 3 1 2 6 6 5 6 5 6 11 8 2 2 5 3 2 2 2 2 5 4 4 3 2 3 3 4 5 3 3 4 3 5 7 6 5 1 1 3 2 4 2 3 0 4 3 1 2 1 4 4 3 3 4 5 8 7 4 6 9 8 8 8 6 5 4 8 14 18 19 18 17 16 15 14 12 11
5 2 4 6 2 2 3 8 10 7 4 3 2 3 5 5 6 5 4 6 8 6 3 3 6 7 5 1 4 2 3 2 3 4 2 3 4 2 3 3 3 4 5 4 1 2 5 1 1 3 5 8 7 5 5 6 4 6 8 5 4 6 6 4 2 4 7 5 5 9 10 6 5 4 4 4 4 11 16 16 15 14 14 14 13 12 11 10
7 4 5 6 3 4 7 9 7 4 3 4 3 3 4 4 6 7 5 3 4 5 4 5 8 9 5 1 4 2 2 4 2 4 2 1 4 1 2 1 1 4 5 3 0 1 3 2 1 3 6 7 8 8 8 6 7 9 9 8 7 7 8 6 3 4 8 6 6 10 8 3 2 3 8 9 9 12 12 12 13 13 12 11 11 10 9 8
7 4 6 6 3 5 7 7 5 2 2 4 2 3 4 3 5 9 7 6 6 4 4 7 9 7 4 4 3 3 4 3 6 10 8 4 6 4 1 2 3 3 3 2 1 2 2 3 1 4 6 3 4 6 4 2 9 11 9 9 8 5 4 4 1 2 6 7 8 8 6 4 3 5 10 11 12 12 10 12 13 12 9 9 9 7 6 5
6 4 4 4 2 3 5 6 4 2 1 2 3 4 5 6 8 10 5 4 5 6 7 9 8 5 4 4 4 10 17 16 14 17 16 14 14 12 7 5 1 2 2 3 2 2 2 5 2 4 4 2 3 2 4 3 6 6 5 4 4 3 1 4 3 4 3 7 8 5 4 4 5 8 8 7 9 10 11 14 12 9 7 6 6 4 3 3
Wind_Direction
11 9 9 8 8 6 3 0 356 352 350 347 343 337 333 327 314 303 300 304 301 294 288 282 276 269 269 271 272 271 266 265 270 268 258 252 243 238 236 240 245 245 253 255 253 261 244 226 200 187 184 192 210 226 224 217 215 173 86 27 301 265 256 194 188 171 138 146 149 165 195 225 180 158 121 101 106 104 112 113 96 120 154 148 144 149 150 155
9 7 6 6 5 4 2 359 354 350 346 344 342 335 331 329 317 301 295 299 299 295 288 282 276 268 270 275 276 277 270 267 269 258 241 227 225 229 234 238 245 254 264 272 284 295 300 277 216 198 189 188 209 220 216 207 199 191 108 31 257 224 219 201 157 146 132 152 160 172 194 224 183 145 132 103 99 109 117 125 111 124 152 160 156 157 160 163
7 6 4 4 3 2 0 357 354 349 345 342 339 334 328 328 321 303 292 295 298 295 287 280 274 269 270 275 279 284 281 278 271 256 238 222 220 225 230 234 243 252 262 273 289 308 325 316 235 209 195 194 233 216 207 190 188 197 149 20 262 210 147 53 142 142 147 155 157 176 193 213 186 150 136 120 94 98 154 168 144 137 153 163 163 165 168 170
5 4 3 2 1 0 358 356 353 348 345 340 336 333 325 326 324 305 291 291 295 294 286 277 269 266 269 274 281 290 303 300 273 252 238 222 217 220 222 230 239 245 257 264 281 299 301 322 214 202 192 212 241 216 213 198 184 174 163 207 252 189 59 79 134 132 140 152 156 165 179 197 177 164 145 131 105 322 224 194 173 155 158 163 168 171 173 177
3 2 1 0 359 358 357 354 352 348 344 339 335 330 323 324 323 308 291 290 293 290 283 274 266 265 266 270 275 285 329 344 256 232 224 215 211 212 217 226 233 244 255 263 283 291 296 279 170 183 196 237 218 208 228 203 185 151 202 238 234 157 74 115 126 132 144 148 152 151 157 173 165 177 166 153 152 231 224 199 180 163 164 169 174 177 178 182
-0 359 358 357 357 356 355 353 350 347 343 340 336 328 321 320 321 310 290 288 290 286 278 268 263 261 261 266 270 272 249 170 191 188 172 186 195 200 211 218 222 237 248 259 270 268 283 229 181 179 194 241 199 205 230 197 187 166 271 248 157 92 112 133 127 138 153 149 149 156 161 162 159 194 182 180 195 234 242 201 183 169 168 173 177 182 185 188
357 356 355 354 354 354 353 352 349 346 343 340 335 327 319 317 320 309 289 288 284 280 274 263 260 257 258 266 263 268 254 241 176 144 144 153 169 180 201 212 212 227 240 249 253 254 243 206 208 201 186 238 214 223 227 188 187 183 324 176 118 87 125 142 138 144 157 155 153 158 158 165 165 169 189 202 219 261 278 205 191 179 170 174 180 186 191 193
354 353 353 352 352 352 351 350 348 346 343 339 335 325 317 316 318 307 289 285 278 273 267 257 255 251 254 263 266 283 261 239 193 173 153 147 161 165 192 211 210 223 236 242 248 244 224 211 223 219 197 242 222 215 171 155 185 203 228 160 117 91 134 146 147 152 160 158 154 156 160 200 189 177 214 212 234 261 224 195 191 181 170 176 184 190 193 196
351 350 350 350 350 350 349 349 347 345 343 340 334 324 317 316 314 303 288 281 273 265 261 253 249 248 248 256 274 297 251 215 206 212 179 173 183 175 202 220 220 227 228 230 235 229 233 241 256 305 300 260 288 186 157 136 210 201 158 131 115 93 134 144 150 157 165 168 164 160 196 265 194 291 263 223 247 226 185 184 185 179 170 176 187 193 195 198
349 348 349 348 348 348 347 347 345 344 344 341 333 326 321 316 310 298 287 276 264 259 257 249 245 243 247 250 259 274 218 193 188 197 192 212 207 204 229 231 236 237 231 225 228 237 248 299 327 334 318 274 312 196 174 170 171 152 121 99 100 100 127 144 153 159 164 181 185 172 279 299 174 321 273 240 234 180 175 176 177 177 171 173 183 191 196 202
346 347 347 347 347 347 346 346 344 344 346 342 335 331 327 319 310 298 285 270 256 256 253 247 246 243 248 252 236 204 187 178 178 185 192 201 193 273 264 241 241 246 247 240 246 275 298 320 332 342 340 314 331 110 157 149 126 123 113 85 70 87 101 148 152 164 169 182 198 179 12 339 51 224 259 247 192 176 175 169 170 177 174 172 178 186 195 203
345 345 345 346 346 345 346 345 343 345 347 346 340 337 335 328 321 304 285 266 256 257 252 246 245 244 253 258 240 208 182 186 189 191 192 187 180 258 282 263 259 252 248 251 268 297 308 305 325 340 335 326 334 87 103 124 117 109 109 81 32 46 32 202 168 182 188 185 190 168 20 316 272 225 249 210 180 178 173 169 170 179 180 178 180 183 190 197
343 343 343 344 344 345 345 343 342 346 350 350 344 341 351 0 355 333 299 274 268 264 255 249 247 249 260 261 242 209 200 204 200 198 196 192 188 207 238 248 278 259 241 239 244 253 263 292 316 327 322 319 12 112 122 117 104 97 93 66 50 20 339 213 182 180 188 216 181 156 358 283 257 236 236 189 180 179 175 177 179 185 190 192 193 193 193 193
341 341 342 342 344 344 344 342 342 346 352 350 343 343 7 7 355 348 336 297 282 274 258 256 256 258 258 255 242 214 213 210 206 203 198 201 197 205 227 225 269 258 245 237 227 239 259 294 311 324 325 305 117 117 107 81 80 87 70 32 82 47 304 223 162 154 163 250 175 135 9 270 278 250 228 197 187 183 181 185 190 199 202 206 208 209 210 208
339 339 339 341 342 343 343 342 341 348 353 348 344 349 8 354 336 343 354 345 316 300 276 271 264 266 271 265 249 218 211 208 208 202 200 213 207 197 197 185 227 263 260 245 234 250 272 302 309 322 322 215 123 114 76 40 43 58 83 329 337 155 282 289 164 166 158 198 168 131 27 264 289 274 214 193 192 189 190 194 202 212 214 218 222 222 227 229
336 336 337 339 341 342 343 340 341 349 352 346 345 351 3 352 331 290 67 47 11 318 290 279 265 262 279 273 245 215 213 211 205 199 208 219 219 194 176 184 240 288 293 277 263 266 277 303 316 337 317 128 113 104 70 48 354 357 117 232 276 192 279 331 192 185 159 111 168 165 339 255 300 333 202 187 193 192 193 201 208 218 222 224 230 232 236 239
333 333 334 337 339 341 342 340 340 349 353 347 344 348 358 360 18 148 128 39 5 328 296 275 271 273 268 256 240 211 211 213 212 214 217 225 243 240 228 242 243 285 313 304 273 264 265 277 256 184 31 72 100 97 80 33 303 298 228 243 233 188 194 296 262 195 161 127 178 202 285 254 274 338 262 187 193 194 196 207 213 220 226 227 229 231 235 238
330 330 332 334 337 341 343 341 339 348 355 350 344 338 346 7 94 160 164 341 333 324 296 263 250 282 265 238 231 203 199 211 219 223 221 226 243 255 258 265 279 301 329 352 202 201 212 221 149 114 24 48 102 101 106 211 218 212 219 239 235 177 173 213 260 189 166 149 156 165 251 262 271 315 256 191 193 196 202 213 219 224 229 231 231 230 233 238
330 329 330 332 336 340 343 342 341 348 358 360 351 319 324 348 288 184 210 310 305 291 277 249 215 228 267 242 233 236 236 223 222 224 220 223 241 257 259 262 287 308 344 33 147 134 155 158 87 115 47 188 188 166 185 199 184 194 206 209 198 179 203 224 238 186 161 144 166 172 214 259 283 316 241 185 190 195 206 220 228 231 232 233 234 234 236 240
331 330 330 332 335 339 343 343 342 347 359 9 357 310 333 357 345 222 303 306 294 265 254 252 244 256 269 273 265 285 284 233 226 227 222 224 240 252 253 257 285 315 347 105 219 47 94 114 226 203 184 187 207 208 213 206 171 177 201 224 210 185 229 236 209 180 152 139 214 192 216 267 304 321 265 171 180 192 204 218 229 233 235 235 235 237 239 244
332 331 331 332 334 339 343 344 342 347 2 14 13 29 49 30 20 316 318 315 308 296 277 265 262 263 264 264 267 303 318 246 221 221 220 224 230 231 230 236 30 317 292 239 246 335 49 237 246 191 175 184 205 211 219 233 192 170 185 212 217 196 230 241 153 163 156 140 276 186 206 280 310 311 270 157 170 197 213 222 233 238 240 239 237 237 241 246
332 332 332 332 334 339 343 343 340 344 0 13 31 66 76 48 15 324 319 306 304 305 290 271 263 258 256 251 255 282 304 267 217 206 204 205 208 205 197 161 116 185 300 20 347 344 351 265 235 161 163 173 206 207 210 235 193 149 158 165 215 212 217 295 100 145 156 145 278 162 153 296 314 300 248 143 169 213 237 237 246 250 253 254 248 245 246 250
332 333 333 332 333 338 342 342 335 333 345 336 21 55 69 29 346 321 309 285 297 303 290 266 255 252 248 242 251 255 250 250 228 201 191 189 194 198 186 136 117 164 343 63 138 92 290 247 190 152 148 146 243 237 202 251 237 130 136 133 204 197 148 167 118 130 134 122 167 136 105 332 330 334 23 82 150 129 261 245 252 266 279 278 267 260 261 261
331 332 333 332 333 336 342 341 328 327 328 294 290 21 20 336 309 303 302 279 290 302 293 260 242 244 234 221 240 233 227 251 249 200 188 187 181 187 197 147 123 162 251 158 143 189 249 237 220 6 90 130 286 321 314 273 294 227 175 161 175 184 161 155 140 124 86 41 111 107 47 330 337 344 328 5 101 116 81 235 250 288 339 354 349 300 276 268
330 331 332 334 332 335 343 341 325 331 325 284 251 275 325 319 304 301 309 310 293 291 291 243 228 224 202 196 220 213 255 267 240 208 189 192 182 172 197 153 146 182 181 161 128 244 266 268 278 326 22 90 29 321 254 217 287 313 220 182 157 167 153 121 123 110 67 351 286 102 64 306 313 328 293 323 21 107 73 176 242 4 24 29 32 40 241 262
328 330 331 333 331 333 343 341 328 332 326 272 245 280 310 306 301 297 314 37 325 281 280 158 190 184 178 196 210 185 3 285 228 215 196 199 197 182 163 147 125 158 166 164 140 251 271 300 259 192 283 351 13 306 248 177 112 328 241 165 133 147 143 126 133 115 107 230 283 92 112 275 313 324 300 322 359 338 329 346 11 22 31 30 44 77 126 190
326 328 330 332 332 333 337 335 328 328 324 283 256 291 308 299 295 287 321 37 336 279 149 158 155 170 180 197 182 158 54 271 213 218 208 203 204 191 195 245 50 193 178 126 154 247 264 342 7 118 122 39 6 282 242 151 120 279 244 151 137 156 155 145 141 120 157 185 357 32 106 102 308 287 292 328 27 354 338 327 343 18 42 48 81 123 160 172
325 327 327 329 332 329 327 328 326 327 323 298 291 310 310 289 284 272 102 52 293 273 137 178 149 169 183 197 192 183 169 118 160 214 209 201 202 190 200 218 173 195 195 122 199 262 268 345 320 87 70 68 235 243 194 144 123 270 250 137 139 152 137 137 134 109 70 81 340 309 82 83 278 279 312 2 50 333 313 289 301 358 44 109 155 175 186 186
323 326 326 326 327 322 320 323 324 326 320 310 317 319 303 265 285 72 95 60 252 284 132 170 150 179 191 164 195 213 248 17 59 185 191 193 198 188 198 216 181 179 263 117 199 262 256 239 263 130 122 220 235 242 167 145 129 125 96 80 71 66 73 82 101 88 35 44 260 255 138 105 279 288 322 4 8 264 264 265 277 296 149 181 180 187 198 204
322 326 325 322 322 317 316 321 318 314 313 318 321 314 293 233 82 78 63 14 210 305 99 171 182 185 178 118 197 240 240 276 318 154 166 179 189 189 145 202 174 135 348 16 230 259 276 282 291 198 213 221 229 250 138 141 134 117 95 75 64 44 46 52 48 66 45 336 269 247 170 115 321 287 263 230 231 215 196 227 258 225 186 194 193 195 211 224
322 325 325 320 316 313 313 316 308 304 310 320 320 318 322 155 84 84 140 246 214 327 50 169 210 154 160 148 190 245 205 260 276 144 152 138 168 184 66 126 146 74 12 351 310 298 314 302 280 234 228 221 180 15 62 97 104 105 90 90 83 22 16 33 0 31 91 265 277 263 183 106 92 279 258 247 256 224 178 185 214 202 189 197 201 209 229 220
325 326 325 316 307 305 306 303 297 303 311 316 318 328 112 112 49 81 267 298 320 279 239 172 180 150 154 131 170 210 184 231 235 132 154 126 136 189 167 165 181 66 354 296 284 326 315 259 272 305 247 203 132 13 351 41 59 90 92 91 88 34 16 21 321 310 224 247 256 247 234 94 192 247 263 262 262 242 206 193 193 188 183 192 203 215 215 178
330 329 325 312 304 307 303 293 291 305 315 313 325 342 86 80 75 215 283 324 280 243 238 132 108 129 131 111 244 225 180 226 235 121 143 124 129 210 239 204 155 122 204 211 203 344 304 286 310 345 266 208 152 153 224 104 120 134 124 112 110 95 76 278 266 270 264 258 226 226 241 38 272 285 303 275 255 232 215 196 187 182 180 187 193 205 204 190
337 337 329 319 323 331 324 297 284 306 317 314 351 34 77 67 264 227 290 279 256 274 312 88 96 96 114 151 240 202 167 245 199 126 96 96 114 212 252 247 148 116 114 158 182 157 162 280 254 193 238 197 168 181 173 148 138 158 149 126 135 152 150 189 211 197 235 253 270 288 315 125 173 310 311 283 206 176 174 166 166 167 172 178 179 191 193 191
349 348 336 345 19 29 45 55 18 10 353 312 42 68 100 239 262 245 256 255 274 328 327 0 97 93 72 268 279 222 180 237 168 114 90 139 161 198 212 212 184 136 122 160 228 160 138 246 253 253 230 156 183 203 152 115 104 208 156 111 136 181 151 148 179 167 169 165 6 323 346 174 194 302 326 0 110 123 137 138 144 155 168 177 182 189 188 191
359 11 20 57 70 62 57 47 33 36 346 71 61 65 186 224 220 191 225 251 315 327 329 351 76 89 340 306 315 309 183 209 122 99 66 185 188 202 211 223 191 161 144 155 209 195 131 261 283 316 292 208 207 195 153 142 166 157 118 147 194 172 120 117 151 57 87 114 251 269 77 320 330 2 332 10 87 87 113 130 149 165 173 186 191 190 192 197
15 48 68 83 87 74 58 36 33 23 334 70 82 164 222 233 210 194 246 329 308 307 64 88 123 136 183 266 295 301 335 300 0 84 227 247 227 200 214 249 188 175 181 170 199 213 151 267 293 315 215 292 264 185 94 89 138 118 142 191 183 90 84 101 110 19 46 130 270 343 120 275 338 117 298 339 114 188 204 147 165 181 188 199 199 194 199 203
13 54 63 80 100 82 58 26 15 1 346 64 68 266 220 238 218 203 265 314 305 313 93 146 218 171 168 188 242 258 143 194 261 154 175 233 265 198 179 212 186 187 194 175 169 255 126 300 297 271 196 308 342 88 32 2 38 110 149 160 114 107 99 73 117 128 103 155 285 337 29 236 190 183 223 200 175 198 212 184 183 196 202 205 203 201 205 211
0 49 51 65 108 89 56 4 347 348 10 73 30 276 209 255 264 265 279 287 277 144 183 215 213 152 169 174 199 215 167 181 193 175 163 174 248 216 180 196 191 191 190 167 154 221 117 102 290 277 225 263 9 72 180 319 18 67 103 79 19 127 151 148 133 152 140 145 240 325 359 265 225 206 187 185 195 191 183 193 204 205 206 206 206 207 212 218
356 69 63 62 109 134 17 341 347 2 35 88 218 241 251 277 285 291 290 274 220 198 213 207 171 171 208 188 195 199 171 176 169 170 202 191 221 256 221 192 140 152 180 155 136 190 100 98 254 285 301 345 0 208 187 181 143 89 79 46 0 87 129 144 84 88 121 136 174 140 343 270 254 217 178 182 196 191 181 187 200 209 209 208 210 213 219 225
16 78 61 45 80 171 326 349 2 36 58 4 238 239 287 296 287 299 302 271 227 236 235 202 180 195 202 190 210 191 151 163 172 179 218 200 204 258 229 195 155 125 130 113 108 181 176 133 187 293 331 321 256 235 198 188 172 149 149 180 173 130 120 118 11 307 115 124 162 148 182 264 265 236 190 183 190 194 188 182 188 207 212 213 217 221 225 231
27 72 68 28 34 228 343 6 9 53 112 278 301 282 281 291 283 296 310 280 221 237 241 210 206 206 194 192 207 171 145 162 189 196 213 209 204 211 222 191 163 148 136 148 211 188 158 122 135 275 269 251 268 262 198 190 159 129 133 167 154 133 119 126 187 234 114 99 142 118 130 254 270 272 196 183 190 191 188 183 184 200 210 216 223 228 231 236
1 35 122 40 11 124 39 13 349 359 269 289 307 289 275 279 274 293 315 339 233 236 227 225 215 189 204 202 145 154 159 165 191 200 212 227 219 221 217 178 159 151 131 136 211 176 133 108 113 291 296 297 304 317 113 137 100 100 79 110 129 139 133 142 169 167 128 150 156 82 71 252 289 307 188 182 185 180 180 185 186 195 209 220 226 231 236 241
350 1 120 45 92 165 88 10 319 331 307 309 318 311 305 278 247 296 311 320 319 289 168 313 269 344 293 180 117 152 171 156 205 219 217 211 228 242 220 184 165 164 178 186 179 167 178 142 103 25 339 341 340 355 0 339 58 117 154 111 116 113 106 114 115 81 96 190 160 115 187 242 295 335 172 173 162 149 167 186 190 198 209 220 227 232 239 245
353 350 65 41 123 149 96 83 101 312 311 330 327 325 337 316 290 321 310 284 321 357 268 314 330 322 314 60 70 26 138 120 175 225 256 235 245 283 227 190 178 182 203 196 165 157 169 158 119 130 183 235 290 287 278 256 208 84 109 127 133 129 126 135 114 80 121 192 150 138 187 242 302 359 131 165 141 131 148 174 191 204 212 220 227 232 240 247
8 11 353 23 87 98 81 65 43 27 298 355 340 322 353 338 312 330 333 311 352 359 352 326 347 356 356 23 32 1 347 4 48 104 341 280 248 299 262 193 188 193 203 169 156 149 122 77 137 142 165 183 196 222 241 174 148 190 171 156 158 152 124 113 107 123 168 151 160 213 179 156 222 194 174 190 165 140 144 170 193 208 215 221 228 232 240 250
28 39 356 4 33 59 64 37 23 16 309 342 0 324 351 340 315 336 353 3 350 348 344 15 20 34 4 2 32 6 331 341 10 18 312 284 260 301 336 181 191 209 210 156 158 147 71 47 155 126 161 215 214 225 253 61 149 196 185 173 165 155 116 108 134 182 155 129 219 238 166 141 187 204 191 189 176 149 159 181 197 209 217 222 229 235 242 253
37 65 47 26 3 17 39 356 352 344 314 298 239 338 346 341 345 348 332 328 343 354 40 14 3 9 307 303 101 19 344 354 358 339 312 322 313 329 8 60 166 200 169 145 160 145 94 85 183 102 42 342 306 247 268 92 110 41 40 160 157 137 121 128 160 168 143 143 202 193 156 156 190 198 182 171 166 168 176 187 199 210 220 225 231 239 248 258
35 52 27 23 11 250 311 325 322 318 321 331 0 16 352 336 351 348 305 320 338 352 45 3 330 326 312 277 124 68 9 35 334 314 306 335 326 340 40 44 73 95 110 119 152 129 108 77 269 107 57 18 16 19 54 93 95 44 33 22 70 94 84 78 95 99 99 107 135 138 142 165 193 177 133 112 151 174 178 188 201 212 223 231 238 247 258 267
34 28 357 2 354 323 329 329 327 322 339 5 21 357 326 320 346 337 303 276 298 321 5 352 320 314 313 22 88 77 182 167 218 274 232 341 326 352 100 197 177 57 55 86 23 348 117 120 300 94 69 15 14 40 57 88 100 75 46 23 38 72 75 68 77 91 82 79 96 113 126 161 233 131 118 127 153 166 173 188 203 214 224 237 248 257 269 276
37 40 8 355 334 343 345 333 338 4 9 11 21 338 328 314 335 333 300 230 224 267 323 329 315 310 329 6 18 331 309 212 227 254 252 254 267 254 273 249 181 81 37 92 91 333 99 115 59 74 73 1 6 47 25 49 87 75 42 13 11 27 87 101 109 125 122 123 111 106 131 184 202 132 118 130 148 156 175 193 203 216 228 245 257 265 280 284
38 65 38 4 326 358 0 333 336 33 13 339 343 336 316 292 315 333 321 264 253 266 307 325 315 298 325 350 333 322 321 308 288 286 283 271 266 267 281 287 259 94 114 128 85 327 122 123 131 87 85 282 293 340 305 332 60 44 347 346 1 333 146 114 61 30 90 130 134 151 186 181 155 135 121 125 143 154 182 197 202 214 225 240 250 255 289 304